Volver al catálogo

DELTA 1 DEB

ActivoSSO
NORAD 10870·DEBRIS·🇺🇸 United States

Lanzado Jul 29, 1976 desde Vandenberg Space Force Base

Loading…

Próximos Pases (próximas 24 horas)

TLE

ActualizadoSource: Space-Track

Época: Sep 13, 2026, 10:05 UTC

1 10870U 76077CY  26256.42055461  .00000084  00000-0  85472-3 0  9992
2 10870 101.7394 236.9667 0020104  24.3717 130.0732 12.48972516274872

Sigue DELTA 1 DEB en tiempo real con AllMySat

Download on the App Store